Change the Weather History Date:

Monday, September 10, 2012

  Actual Average Record
Temperature  
Mean Temperature 73 °F 61 °F  
Max Temperature 89 °F 75 °F 92 °F (1948)
Min Temperature 57 °F 47 °F 23 °F (1955)
Degree Days  
Heating Degree Days 0 6  
Month to date heating degree days 25 46  
Since 1 July heating degree days 49 99  
Cooling Degree Days 8 2  
Month to date cooling degree days 22 24  
Year to date cooling degree days 679 519  
Growing Degree Days 23 (Base 50)    
Moisture  
Dew Point 29 °F    
Average Humidity 25    
Maximum Humidity 43    
Minimum Humidity 6    
Precipitation  
Precipitation 0.00 in 0.03 in 1.94 in (1916)
Month to date precipitation 0.02 0.32  
Year to date precipitation 10.85 9.49  
Snow  
Snow 0.00 in 0.00 in T in (1989)
Month to date snowfall 0.0 0.0  
Since 1 July snowfall 0.0 0.0  
Since 1 September snowfall 0.0 0.0  
Snow Depth 0.00 in    
Sea Level Pressure  
Sea Level Pressure 29.63 in    
Wind  
Wind Speed 13 mph (WNW)    
Max Wind Speed 31 mph    
Max Gust Speed 38 mph    
Visibility 10 miles    
Events      
T = Trace of Precipitation, MM = Missing Value Source: NWS Daily Summary

Daily Weather History Graph

Daily Weather History Graph

Search for Another Location

Airport or City:

Trip Planner

Search our weather history database for the weather conditions in past years. The results will help you decide how hot, cold, wet, or windy it might be!

Date:

Astronomy

Sep. 10, 2012 Rise Set
Actual Time 6:37 AM MDT 7:28 PM MDT
Civil Twilight 6:05 AM MDT 7:59 PM MDT
Nautical Twilight 5:27 AM MDT 8:37 PM MDT
Astronomical Twilight 4:47 AM MDT 9:17 PM MDT
Moon 12:40 AM MDT (9/10) 4:18 PM MDT (9/10)
Length of Visible Light 13h 54m
Length of Day
12h 50m
Waning Crescent, 29% of the Moon is Illuminated
Sep 10
Waning Crescent
Sep 15
New
Sep 22
First Quarter
Sep 29
Full
Oct 8
Last Quarter

Hourly Weather History & Observations

Time (MDT) Temp. Dew Point Humidity Pressure Visibility Wind Dir Wind Speed Gust Speed Precip Events Conditions
12:53 AM 63.0 °F 30.0 °F 29% 29.57 in 10.0 mi SE 10.4 mph - N/A   Clear
1:53 AM 63.0 °F 32.0 °F 31% 29.58 in 10.0 mi East 5.8 mph - N/A   Clear
2:53 AM 61.0 °F 30.9 °F 32% 29.62 in 10.0 mi NW 10.4 mph - N/A   Clear
3:53 AM 63.0 °F 34.0 °F 34% 29.60 in 10.0 mi NNE 12.7 mph - N/A   Clear
4:53 AM 62.1 °F 37.0 °F 39% 29.59 in 9.0 mi NNE 4.6 mph - N/A   Partly Cloudy
5:53 AM 60.1 °F 35.1 °F 39% 29.63 in 10.0 mi West 5.8 mph - N/A   Clear
6:53 AM 60.1 °F 35.1 °F 39% 29.65 in 10.0 mi Calm Calm - N/A   Clear
7:53 AM 57.9 °F 36.0 °F 44% 29.66 in 10.0 mi Calm Calm - N/A   Clear
8:53 AM 66.9 °F 37.0 °F 33% 29.65 in 8.0 mi Calm Calm - N/A   Clear
9:53 AM 69.1 °F 37.9 °F 32% 29.65 in 7.0 mi SW 3.5 mph - N/A   Clear
10:53 AM 75.9 °F 37.9 °F 25% 29.65 in 8.0 mi SSW 8.1 mph - N/A   Clear
11:53 AM 82.0 °F 36.0 °F 19% 29.62 in 10.0 mi South 9.2 mph - N/A   Clear
12:53 PM 87.8 °F 32.0 °F 14% 29.63 in 10.0 mi West 21.9 mph 27.6 mph N/A   Clear
1:53 PM 89.1 °F 28.9 °F 12% 29.57 in 10.0 mi West 24.2 mph 32.2 mph N/A   Clear
2:53 PM 88.0 °F 24.1 °F 10% 29.57 in 8.0 mi West 24.2 mph 33.4 mph N/A   Clear
3:53 PM 88.0 °F 15.1 °F 7% 29.56 in 10.0 mi West 26.5 mph 34.5 mph N/A   Clear
4:53 PM 87.1 °F 12.0 °F 6% 29.57 in 10.0 mi West 21.9 mph 31.1 mph N/A   Clear
5:53 PM 84.9 °F 16.0 °F 8% 29.57 in 10.0 mi West 15.0 mph 28.8 mph N/A   Clear
6:53 PM 80.1 °F 18.0 °F 10% 29.59 in 10.0 mi West 13.8 mph - N/A   Clear
7:53 PM 73.0 °F 19.9 °F 14% 29.64 in 10.0 mi NW 18.4 mph 25.3 mph N/A   Clear
8:53 PM 70.0 °F 30.9 °F 24% 29.69 in 10.0 mi NW 17.3 mph - N/A   Clear
9:53 PM 69.1 °F 28.9 °F 22% 29.72 in 10.0 mi NW 19.6 mph 25.3 mph N/A   Clear
10:53 PM 66.9 °F 30.0 °F 25% 29.76 in 10.0 mi NW 17.3 mph - N/A   Clear
11:53 PM 62.1 °F 32.0 °F 32% 29.78 in 9.0 mi NNW 23.0 mph 31.1 mph N/A   Clear